When you browse on this site, cookies collect data to enhance your experience and personalize the content and advertising you see.
Visit our Privacy Policy to learn more. By continuing to use the site, you agree to this use of cookies and data.
  • în România
  • Lista ţărilor
  • Pe 7 zile
  • Temperatura apei
  • Hartă satelitară
  • Meteo pe hartă
  • Widget-uri
  • user-avatar
    Intrare

    Meteo pe oră la Matveycevo

    Astăzi, 22 Ianuarie, Marţi

    Timp Temperatura Precipitaţii Vânt Presiune Umiditate
    00:00 -21°C° 0 mm 2 m/s 740 mmHg 97%
    01:00 -23°C° 0 mm 2 m/s 740 mmHg 98%
    02:00 -24°C° 0 mm 2 m/s 740 mmHg 98%
    03:00 -24°C° 0 mm 2 m/s 740 mmHg 98%
    04:00 -23°C° 0 mm 2 m/s 741 mmHg 98%
    05:00 -21°C° 0 mm 2 m/s 741 mmHg 97%
    06:00 -23°C° 0 mm 2 m/s 741 mmHg 97%
    07:00 -23°C° 0 mm 2 m/s 741 mmHg 98%
    08:00 -23°C° 0 mm 2 m/s 742 mmHg 98%
    09:00 -20°C° 0 mm 2 m/s 742 mmHg 96%
    10:00 -19°C° 0 mm 3 m/s 742 mmHg 95%
    11:00 -17°C° 0 mm 3 m/s 743 mmHg 94%
    12:00 -16°C° 0 mm 3 m/s 743 mmHg 94%
    13:00 -15°C° 0 mm 3 m/s 743 mmHg 93%
    14:00 -15°C° 0 mm 3 m/s 743 mmHg 93%
    15:00 -15°C° 0.1 mm 3 m/s 743 mmHg 93%
    16:00 -16°C° 0.1 mm 3 m/s 743 mmHg 94%
    17:00 -17°C° 0.1 mm 3 m/s 743 mmHg 95%
    18:00 -17°C° 0 mm 3 m/s 743 mmHg 94%
    19:00 -17°C° 0 mm 3 m/s 743 mmHg 94%
    20:00 -18°C° 0 mm 3 m/s 743 mmHg 94%
    21:00 -18°C° 0 mm 3 m/s 743 mmHg 94%
    22:00 -18°C° 0 mm 3 m/s 743 mmHg 94%
    23:00 -18°C° 0 mm 3 m/s 743 mmHg 94%

    Mâine, 23 Ianuarie, Miercuri

    Timp Temperatura Precipitaţii Vânt Presiune Umiditate
    00:00 -19°C° 0 mm 3 m/s 744 mmHg 95%
    01:00 -19°C° 0 mm 3 m/s 744 mmHg 95%
    02:00 -21°C° 0 mm 3 m/s 744 mmHg 96%
    03:00 -20°C° 0 mm 2 m/s 744 mmHg 96%
    04:00 -20°C° 0 mm 2 m/s 744 mmHg 97%
    05:00 -21°C° 0 mm 2 m/s 744 mmHg 98%
    06:00 -23°C° 0 mm 2 m/s 745 mmHg 97%
    07:00 -23°C° 0 mm 2 m/s 745 mmHg 97%
    08:00 -24°C° 0 mm 2 m/s 745 mmHg 97%
    09:00 -21°C° 0 mm 2 m/s 745 mmHg 94%
    10:00 -20°C° 0 mm 2 m/s 746 mmHg 92%
    11:00 -21°C° 0 mm 3 m/s 746 mmHg 89%
    12:00 -19°C° 0 mm 3 m/s 746 mmHg 89%
    13:00 -19°C° 0 mm 3 m/s 745 mmHg 88%
    14:00 -18°C° 0 mm 3 m/s 745 mmHg 88%
    15:00 -19°C° 0 mm 3 m/s 745 mmHg 89%
    16:00 -19°C° 0 mm 3 m/s 745 mmHg 90%
    17:00 -21°C° 0 mm 3 m/s 745 mmHg 91%
    18:00 -21°C° 0 mm 3 m/s 745 mmHg 92%
    19:00 -21°C° 0 mm 3 m/s 744 mmHg 93%
    20:00 -22°C° 0 mm 4 m/s 744 mmHg 93%
    21:00 -22°C° 0 mm 4 m/s 744 mmHg 94%
    22:00 -20°C° 0 mm 4 m/s 744 mmHg 94%
    23:00 -20°C° 0 mm 4 m/s 743 mmHg 94%

    Poimâine, 24 Ianuarie, Joi

    Timp Temperatura Precipitaţii Vânt Presiune Umiditate
    00:00 -19°C° 0.1 mm 4 m/s 743 mmHg 93%
    01:00 -18°C° 0.1 mm 4 m/s 743 mmHg 92%
    02:00 -16°C° 0.1 mm 4 m/s 743 mmHg 92%
    03:00 -15°C° 0.1 mm 4 m/s 742 mmHg 91%
    04:00 -15°C° 0.1 mm 5 m/s 742 mmHg 91%
    05:00 -14°C° 0.1 mm 5 m/s 741 mmHg 91%
    06:00 -14°C° 0.3 mm 5 m/s 741 mmHg 91%
    07:00 -14°C° 0.3 mm 5 m/s 741 mmHg 91%
    08:00 -14°C° 0.3 mm 5 m/s 741 mmHg 92%
    09:00 -13°C° 0.1 mm 5 m/s 741 mmHg 91%
    10:00 -12°C° 0.1 mm 4 m/s 742 mmHg 91%
    11:00 -12°C° 0.1 mm 4 m/s 742 mmHg 90%
    12:00 -11°C° 0.1 mm 4 m/s 742 mmHg 89%
    13:00 -10°C° 0.1 mm 4 m/s 743 mmHg 87%
    14:00 -9°C° 0.1 mm 3 m/s 743 mmHg 85%
    15:00 -12°C° 0 mm 3 m/s 744 mmHg 88%
    16:00 -15°C° 0 mm 3 m/s 744 mmHg 92%
    17:00 -16°C° 0 mm 2 m/s 745 mmHg 95%
    18:00 -18°C° 0 mm 2 m/s 745 mmHg 96%
    19:00 -19°C° 0 mm 2 m/s 746 mmHg 97%
    20:00 -20°C° 0 mm 2 m/s 746 mmHg 97%
    21:00 -21°C° 0 mm 2 m/s 747 mmHg 98%
    22:00 -23°C° 0 mm 2 m/s 747 mmHg 98%
    23:00 -23°C° 0 mm 2 m/s 748 mmHg 99%

    25 Ianuarie, Vineri

    Timp Temperatura Precipitaţii Vânt Presiune Umiditate
    00:00 -20°C° 0 mm 1 m/s 749 mmHg 99%
    01:00 -21°C° 0 mm 1 m/s 749 mmHg 99%
    02:00 -21°C° 0 mm 1 m/s 750 mmHg 99%
    03:00 -21°C° 0 mm 1 m/s 750 mmHg 99%
    04:00 -21°C° 0 mm 1 m/s 750 mmHg 99%
    05:00 -21°C° 0 mm 1 m/s 750 mmHg 99%
    06:00 -21°C° 0 mm 1 m/s 751 mmHg 99%
    07:00 -21°C° 0 mm 1 m/s 751 mmHg 99%
    08:00 -21°C° 0 mm 1 m/s 752 mmHg 99%
    09:00 -20°C° 0 mm 1 m/s 752 mmHg 97%
    10:00 -19°C° 0 mm 1 m/s 752 mmHg 96%
    11:00 -17°C° 0 mm 1 m/s 753 mmHg 94%
    12:00 -17°C° 0 mm 1 m/s 753 mmHg 94%
    13:00 -16°C° 0 mm 1 m/s 753 mmHg 94%
    14:00 -16°C° 0 mm 1 m/s 753 mmHg 94%
    15:00 -17°C° 0 mm 1 m/s 753 mmHg 95%
    16:00 -18°C° 0 mm 1 m/s 753 mmHg 95%
    17:00 -19°C° 0 mm 1 m/s 753 mmHg 96%
    18:00 -19°C° 0 mm 1 m/s 754 mmHg 96%
    19:00 -20°C° 0 mm 1 m/s 754 mmHg 96%
    20:00 -20°C° 0 mm 1 m/s 754 mmHg 97%
    21:00 -20°C° 0 mm 1 m/s 754 mmHg 97%
    22:00 -20°C° 0 mm 0 m/s 754 mmHg 98%
    23:00 -20°C° 0 mm 0 m/s 755 mmHg 98%

    26 Ianuarie, Sâmbătă

    Timp Temperatura Precipitaţii Vânt Presiune Umiditate
    00:00 -20°C° 0 mm 0 m/s 755 mmHg 98%
    01:00 -21°C° 0 mm 0 m/s 755 mmHg 99%
    02:00 -21°C° 0 mm 0 m/s 755 mmHg 99%
    03:00 -21°C° 0 mm 0 m/s 755 mmHg 99%
    04:00 -21°C° 0 mm 0 m/s 755 mmHg 99%
    05:00 -21°C° 0 mm 1 m/s 754 mmHg 99%
    06:00 -21°C° 0 mm 1 m/s 755 mmHg 99%
    07:00 -22°C° 0 mm 1 m/s 755 mmHg 99%
    08:00 -22°C° 0 mm 1 m/s 755 mmHg 99%
    09:00 -21°C° 0 mm 1 m/s 755 mmHg 98%
    10:00 -19°C° 0 mm 1 m/s 755 mmHg 97%
    11:00 -18°C° 0 mm 1 m/s 755 mmHg 96%
    12:00 -18°C° 0 mm 1 m/s 755 mmHg 96%
    13:00 -18°C° 0 mm 1 m/s 755 mmHg 95%
    14:00 -17°C° 0 mm 1 m/s 755 mmHg 95%
    15:00 -19°C° 0 mm 1 m/s 755 mmHg 95%
    16:00 -20°C° 0 mm 1 m/s 755 mmHg 95%
    17:00 -22°C° 0 mm 1 m/s 754 mmHg 95%
    18:00 -25°C° 0 mm 2 m/s 754 mmHg 95%
    19:00 -25°C° 0 mm 2 m/s 754 mmHg 96%
    20:00 -25°C° 0 mm 2 m/s 754 mmHg 96%
    21:00 -25°C° 0 mm 2 m/s 754 mmHg 97%
    22:00 -25°C° 0 mm 2 m/s 754 mmHg 97%
    23:00 -25°C° 0 mm 2 m/s 754 mmHg 98%

    27 Ianuarie, Duminică

    Timp Temperatura Precipitaţii Vânt Presiune Umiditate
    00:00 -26°C° 0 mm 2 m/s 754 mmHg 98%
    01:00 -26°C° 0 mm 2 m/s 754 mmHg 98%
    02:00 -26°C° 0 mm 2 m/s 754 mmHg 98%
    03:00 -26°C° 0 mm 2 m/s 754 mmHg 98%
    04:00 -27°C° 0 mm 2 m/s 753 mmHg 98%
    05:00 -27°C° 0 mm 2 m/s 753 mmHg 98%
    06:00 -27°C° 0 mm 2 m/s 753 mmHg 98%
    07:00 -27°C° 0 mm 2 m/s 753 mmHg 98%
    08:00 -27°C° 0 mm 2 m/s 753 mmHg 98%
    09:00 -27°C° 0 mm 3 m/s 753 mmHg 97%
    10:00 -26°C° 0 mm 3 m/s 753 mmHg 96%
    11:00 -25°C° 0 mm 3 m/s 753 mmHg 96%
    12:00 -25°C° 0 mm 3 m/s 753 mmHg 95%
    13:00 -24°C° 0 mm 3 m/s 752 mmHg 94%
    14:00 -24°C° 0 mm 3 m/s 752 mmHg 93%
    15:00 -25°C° 0 mm 3 m/s 752 mmHg 94%
    16:00 -26°C° 0 mm 3 m/s 752 mmHg 95%
    17:00 -27°C° 0 mm 3 m/s 751 mmHg 95%
    18:00 -27°C° 0 mm 3 m/s 751 mmHg 95%
    19:00 -27°C° 0 mm 3 m/s 751 mmHg 95%
    20:00 -29°C° 0 mm 3 m/s 751 mmHg 95%
    21:00 -30°C° 0 mm 4 m/s 751 mmHg 95%
    22:00 -30°C° 0 mm 4 m/s 750 mmHg 94%
    23:00 -30°C° 0 mm 4 m/s 750 mmHg 94%
    Arată mai mult